| time (UTC) | temp F | wind direction | speed MPH | gust MPH | rain 1hr in | rain 24hr in | rain mn in | humidity % | barometer mb |
| 20260505074930 | 49 | 246 | 1.0 | 2.0 | 0.01 | 0.13 | 0.01 | 100 | 1017.1 |
| 20260505074430 | 49 | 246 | 0.0 | 0.0 | 0.01 | 0.13 | 0.01 | 100 | 1017.1 |
| 20260505073931 | 49 | 246 | 0.0 | 1.0 | 0.01 | 0.13 | 0.01 | 100 | 1017.0 |
| 20260505073431 | 48 | 261 | 0.0 | 0.0 | 0.01 | 0.13 | 0.01 | 100 | 1017.0 |
| 20260505072931 | 48 | 261 | 1.0 | 3.0 | 0.01 | 0.13 | 0.01 | 100 | 1017.0 |
| 20260505072430 | 48 | 261 | 0.0 | 0.0 | 0.00 | 0.12 | 0.00 | 100 | 1017.0 |
| 20260505070930 | 48 | 261 | 0.0 | 0.0 | 0.00 | 0.12 | 0.00 | 100 | 1016.9 |
| 20260505070430 | 48 | 261 | 0.0 | 0.0 | 0.00 | 0.12 | 0.00 | 100 | 1016.9 |
| 20260505065932 | 47 | 261 | 0.0 | 0.0 | 0.00 | 0.12 | 0.00 | 100 | 1016.9 |
| 20260505064430 | 47 | 261 | 0.0 | 0.0 | 0.00 | 0.12 | 0.00 | 100 | 1016.8 |
| 20260505063930 | 46 | 261 | 0.0 | 0.0 | 0.00 | 0.12 | 0.00 | 100 | 1016.8 |
| 20260505062932 | 46 | 261 | 0.0 | 0.0 | 0.00 | 0.12 | 0.00 | 99 | 1016.7 |
| 20260505061931 | 46 | 261 | 0.0 | 0.0 | 0.00 | 0.13 | 0.00 | 99 | 1016.7 |
| 20260505060930 | 46 | 261 | 0.0 | 0.0 | 0.00 | 0.13 | 0.00 | 99 | 1016.7 |
| 20260505060430 | 46 | 261 | 0.0 | 0.0 | 0.00 | 0.13 | 0.00 | 99 | 1016.7 |
| 20260505055931 | 46 | 261 | 0.0 | 0.0 | 0.00 | 0.13 | 0.00 | 99 | 1016.7 |
| 20260505055430 | 46 | 261 | 0.0 | 0.0 | 0.00 | 0.13 | 0.00 | 99 | 1016.7 |
| 20260505054936 | 46 | 288 | 0.0 | 0.0 | 0.00 | 0.13 | 0.00 | 98 | 1016.7 |
| 20260505053930 | 49 | 261 | 0.0 | 0.0 | 0.00 | 0.13 | 0.00 | 95 | 1016.6 |
| 20260505053430 | 49 | 261 | 0.0 | 0.0 | 0.00 | 0.13 | 0.00 | 95 | 1016.6 |
| 20260505052931 | 49 | 261 | 0.0 | 0.0 | 0.00 | 0.13 | 0.00 | 95 | 1016.6 |
| 20260505051930 | 49 | 261 | 0.0 | 0.0 | 0.00 | 0.13 | 0.00 | 95 | 1016.5 |
| 20260505051430 | 49 | 261 | 0.0 | 2.0 | 0.00 | 0.13 | 0.00 | 95 | 1016.5 |
| 20260505050931 | 49 | 261 | 1.0 | 2.0 | 0.00 | 0.13 | 0.00 | 95 | 1016.6 |
| 20260505040430 | 49 | 261 | 0.0 | 0.0 | 0.00 | 0.13 | 0.00 | 95 | 1016.9 |
| 20260505035932 | 49 | 261 | 0.0 | 0.0 | 0.00 | 0.13 | 0.00 | 95 | 1016.9 |
| 20260505035430 | 49 | 261 | 0.0 | 2.0 | 0.00 | 0.13 | 0.00 | 95 | 1016.9 |
| 20260505034930 | 49 | 261 | 1.0 | 3.0 | 0.00 | 0.13 | 0.00 | 95 | 1016.9 |
| 20260505034430 | 49 | 261 | 0.0 | 0.0 | 0.00 | 0.13 | 0.00 | 95 | 1016.9 |
| 20260505033430 | 49 | 261 | 0.0 | 1.0 | 0.00 | 0.13 | 0.00 | 95 | 1016.9 |
| 20260505032931 | 49 | 261 | 0.0 | 2.0 | 0.00 | 0.13 | 0.00 | 95 | 1016.9 |
| 20260505031930 | 49 | 261 | 1.0 | 3.0 | 0.00 | 0.13 | 0.00 | 95 | 1017.1 |
| 20260505031431 | 49 | 261 | 0.0 | 0.0 | 0.00 | 0.13 | 0.00 | 95 | 1017.1 |
| 20260505030927 | 49 | 261 | 0.0 | 0.0 | 0.00 | 0.13 | 0.00 | 95 | 1017.1 |
| 20260505030430 | 49 | 261 | 0.0 | 0.0 | 0.00 | 0.13 | 0.00 | 95 | 1017.1 |
| 20260505025931 | 49 | 261 | 0.0 | 0.0 | 0.00 | 0.13 | 0.00 | 95 | 1017.1 |
| 20260505025430 | 49 | 261 | 0.0 | 0.0 | 0.00 | 0.13 | 0.00 | 95 | 1017.2 |
| 20260505024930 | 49 | 261 | 0.0 | 0.0 | 0.00 | 0.13 | 0.00 | 95 | 1017.1 |
| 20260505024430 | 49 | 261 | 0.0 | 0.0 | 0.00 | 0.13 | 0.00 | 95 | 1017.2 |
| 20260505023431 | 49 | 261 | 0.0 | 0.0 | 0.00 | 0.13 | 0.00 | 95 | 1017.2 |
| 20260505022931 | 49 | 261 | 0.0 | 0.0 | 0.00 | 0.13 | 0.00 | 95 | 1017.2 |
| 20260505022430 | 49 | 261 | 0.0 | 0.0 | 0.00 | 0.13 | 0.00 | 95 | 1017.2 |
| 20260505021930 | 49 | 261 | 0.0 | 0.0 | 0.00 | 0.13 | 0.00 | 95 | 1017.3 |
| 20260505021430 | 49 | 261 | 0.0 | 0.0 | 0.00 | 0.13 | 0.00 | 95 | 1017.2 |
| 20260505020930 | 49 | 261 | 0.0 | 0.0 | 0.00 | 0.13 | 0.00 | 95 | 1017.2 |
| 20260505020430 | 49 | 261 | 0.0 | 0.0 | 0.00 | 0.13 | 0.00 | 95 | 1017.3 |
| 20260505015931 | 49 | 261 | 0.0 | 0.0 | 0.00 | 0.13 | 0.00 | 95 | 1017.2 |
| 20260505015430 | 49 | 261 | 0.0 | 0.0 | 0.00 | 0.13 | 0.00 | 95 | 1017.3 |
| 20260505014931 | 49 | 261 | 0.0 | 0.0 | 0.00 | 0.13 | 0.00 | 95 | 1017.3 |
| 20260505014431 | 49 | 261 | 0.0 | 0.0 | 0.00 | 0.13 | 0.00 | 95 | 1017.3 |
| 20260505013930 | 49 | 261 | 0.0 | 0.0 | 0.00 | 0.13 | 0.00 | 95 | 1017.3 |
| 20260505013430 | 49 | 261 | 0.0 | 0.0 | 0.00 | 0.13 | 0.00 | 95 | 1017.4 |
| 20260505012931 | 49 | 261 | 0.0 | 1.0 | 0.00 | 0.13 | 0.00 | 95 | 1017.5 |
| 20260505012430 | 49 | 261 | 0.0 | 2.0 | 0.00 | 0.13 | 0.00 | 95 | 1017.5 |
| 20260505011430 | 49 | 261 | 0.0 | 0.0 | 0.00 | 0.13 | 0.00 | 95 | 1017.5 |
| 20260505010430 | 49 | 261 | 0.0 | 0.0 | 0.00 | 0.13 | 0.00 | 95 | 1017.6 |
| 20260505005931 | 49 | 261 | 0.0 | 0.0 | 0.00 | 0.13 | 0.00 | 95 | 1017.6 |
| 20260505004931 | 49 | 261 | 0.0 | 0.0 | 0.00 | 0.13 | 0.00 | 95 | 1017.7 |
| 20260505004430 | 49 | 261 | 0.0 | 0.0 | 0.00 | 0.13 | 0.00 | 95 | 1017.6 |
| 20260505003930 | 49 | 261 | 0.0 | 0.0 | 0.00 | 0.13 | 0.00 | 95 | 1017.7 |
| 20260505003430 | 49 | 261 | 0.0 | 1.0 | 0.00 | 0.13 | 0.00 | 95 | 1017.7 |
| 20260505002931 | 49 | 261 | 0.0 | 1.0 | 0.00 | 0.13 | 0.00 | 95 | 1017.8 |
| 20260505002430 | 49 | 261 | 1.0 | 3.0 | 0.00 | 0.13 | 0.00 | 95 | 1017.8 |
| 20260505001930 | 49 | 261 | 2.0 | 3.0 | 0.00 | 0.13 | 0.00 | 95 | 1017.7 |
| 20260505000928 | 49 | 261 | 0.0 | 0.0 | 0.00 | 0.13 | 0.00 | 95 | 1017.7 |
| 20260505000430 | 49 | 261 | 0.0 | 0.0 | 0.00 | 0.13 | 0.00 | 95 | 1017.8 |
| 20260504235430 | 49 | 261 | 1.0 | 2.0 | 0.00 | 0.13 | 0.00 | 95 | 1017.8 |
| 20260504234930 | 49 | 261 | 0.0 | 0.0 | 0.00 | 0.13 | 0.00 | 95 | 1017.7 |
| 20260504234430 | 49 | 261 | 0.0 | 0.0 | 0.00 | 0.13 | 0.00 | 95 | 1017.7 |
| 20260504233928 | 49 | 261 | 0.0 | 0.0 | 0.00 | 0.13 | 0.00 | 95 | 1017.7 |
| 20260504233431 | 49 | 261 | 0.0 | 1.0 | 0.00 | 0.13 | 0.00 | 95 | 1017.7 |
| 20260504232929 | 49 | 261 | 0.0 | 1.0 | 0.00 | 0.13 | 0.00 | 95 | 1017.7 |
| 20260504231930 | 49 | 261 | 0.0 | 0.0 | 0.00 | 0.13 | 0.00 | 95 | 1017.8 |
| 20260504231430 | 49 | 261 | 0.0 | 0.0 | 0.00 | 0.13 | 0.00 | 95 | 1017.8 |
| 20260504230930 | 49 | 261 | 0.0 | 0.0 | 0.00 | 0.13 | 0.00 | 95 | 1017.8 |
| 20260504230428 | 49 | 261 | 0.0 | 0.0 | 0.00 | 0.13 | 0.00 | 95 | 1017.8 |
| 20260504225931 | 49 | 261 | 0.0 | 0.0 | 0.00 | 0.13 | 0.00 | 95 | 1017.8 |
| 20260504225430 | 49 | 261 | 0.0 | 1.0 | 0.00 | 0.13 | 0.00 | 95 | 1017.8 |
| 20260504224931 | 49 | 261 | 0.0 | 0.0 | 0.00 | 0.13 | 0.00 | 95 | 1017.8 |
| 20260504224430 | 49 | 261 | 0.0 | 0.0 | 0.00 | 0.13 | 0.00 | 95 | 1017.8 |
| 20260504223930 | 49 | 261 | 0.0 | 0.0 | 0.00 | 0.13 | 0.00 | 95 | 1017.9 |
| 20260504223430 | 49 | 261 | 0.0 | 1.0 | 0.00 | 0.13 | 0.00 | 95 | 1017.9 |
| 20260504222931 | 49 | 261 | 1.0 | 2.0 | 0.00 | 0.13 | 0.00 | 95 | 1017.9 |
| 20260504222430 | 49 | 261 | 0.0 | 3.0 | 0.00 | 0.13 | 0.00 | 95 | 1017.9 |
| 20260504221930 | 49 | 261 | 3.0 | 5.0 | 0.00 | 0.13 | 0.00 | 95 | 1017.9 |
| 20260504221430 | 49 | 261 | 2.0 | 3.0 | 0.00 | 0.13 | 0.00 | 95 | 1017.9 |
| 20260504220930 | 49 | 261 | 3.0 | 5.0 | 0.00 | 0.13 | 0.00 | 95 | 1017.9 |
| 20260504220430 | 49 | 282 | 3.0 | 5.0 | 0.00 | 0.13 | 0.00 | 95 | 1017.9 |
| 20260504215431 | 49 | 313 | 3.0 | 5.0 | 0.00 | 0.13 | 0.13 | 95 | 1018.0 |
| 20260504214430 | 49 | 316 | 3.0 | 5.0 | 0.00 | 0.13 | 0.13 | 95 | 1018.1 |
| 20260504213929 | 49 | 316 | 4.0 | 5.0 | 0.00 | 0.13 | 0.13 | 95 | 1018.0 |
| 20260504212431 | 49 | 316 | 1.0 | 3.0 | 0.00 | 0.13 | 0.13 | 95 | 1018.1 |
| 20260504211430 | 49 | 322 | 2.0 | 5.0 | 0.00 | 0.13 | 0.13 | 95 | 1018.0 |
| 20260504210930 | 49 | 333 | 3.0 | 3.0 | 0.00 | 0.13 | 0.13 | 95 | 1017.9 |
| 20260504210431 | 49 | 333 | 1.0 | 3.0 | 0.01 | 0.13 | 0.13 | 94 | 1017.9 |
| 20260504205930 | 49 | 333 | 0.0 | 0.0 | 0.01 | 0.13 | 0.13 | 94 | 1017.9 |
| 20260504205430 | 49 | 333 | 1.0 | 3.0 | 0.01 | 0.13 | 0.13 | 94 | 1017.8 |
| 20260504204931 | 49 | 333 | 0.0 | 0.0 | 0.01 | 0.13 | 0.13 | 93 | 1017.8 |
| 20260504204431 | 50 | 333 | 0.0 | 0.0 | 0.02 | 0.13 | 0.13 | 93 | 1017.8 |
| 20260504203931 | 50 | 333 | 0.0 | 1.0 | 0.02 | 0.13 | 0.13 | 93 | 1017.7 |
| 20260504202431 | 50 | 333 | 0.0 | 3.0 | 0.02 | 0.13 | 0.13 | 92 | 1017.5 |
| 20260504201931 | 50 | 333 | 0.0 | 2.0 | 0.02 | 0.13 | 0.13 | 92 | 1017.5 |
| 20260504200428 | 51 | 336 | 0.0 | 0.0 | 0.04 | 0.12 | 0.12 | 91 | 1017.3 |
| 20260504195932 | 51 | 336 | 0.0 | 0.0 | 0.04 | 0.12 | 0.12 | 91 | 1017.3 |
| 20260504195430 | 51 | 337 | 1.0 | 5.0 | 0.05 | 0.12 | 0.12 | 90 | 1017.2 |
| 20260504194931 | 51 | 329 | 4.0 | 8.0 | 0.05 | 0.12 | 0.12 | 90 | 1017.2 |
| 20260504194430 | 51 | 256 | 3.0 | 5.0 | 0.05 | 0.11 | 0.11 | 90 | 1017.1 |
| 20260504193930 | 52 | 256 | 5.0 | 6.0 | 0.04 | 0.10 | 0.10 | 89 | 1017.0 |
| 20260504193430 | 52 | 256 | 2.0 | 3.0 | 0.04 | 0.10 | 0.10 | 89 | 1017.0 |
| 20260504192431 | 52 | 256 | 0.0 | 0.0 | 0.04 | 0.10 | 0.10 | 88 | 1016.8 |
| 20260504191931 | 53 | 256 | 0.0 | 0.0 | 0.04 | 0.10 | 0.10 | 87 | 1016.8 |
| 20260504191429 | 53 | 256 | 2.0 | 5.0 | 0.03 | 0.09 | 0.09 | 87 | 1016.7 |
| 20260504190930 | 53 | 256 | 0.0 | 3.0 | 0.02 | 0.08 | 0.08 | 85 | 1016.7 |
| 20260504190431 | 53 | 256 | 1.0 | 3.0 | 0.02 | 0.08 | 0.08 | 85 | 1016.7 |
| 20260504185931 | 54 | 256 | 2.0 | 5.0 | 0.02 | 0.08 | 0.08 | 85 | 1016.6 |
| 20260504185431 | 54 | 256 | 3.0 | 3.0 | 0.01 | 0.07 | 0.07 | 85 | 1016.6 |
| 20260504184931 | 54 | 256 | 1.0 | 6.0 | 0.01 | 0.07 | 0.07 | 84 | 1016.6 |
| 20260504184428 | 54 | 256 | 3.0 | 5.0 | 0.00 | 0.06 | 0.06 | 84 | 1016.6 |
| 20260504183929 | 54 | 256 | 4.0 | 6.0 | 0.00 | 0.06 | 0.06 | 84 | 1016.5 |
| 20260504183430 | 54 | 256 | 5.0 | 9.0 | 0.00 | 0.06 | 0.06 | 83 | 1016.5 |
| 20260504182933 | 54 | 234 | 7.0 | 12.0 | 0.00 | 0.06 | 0.06 | 83 | 1016.4 |
| 20260504182431 | 55 | 239 | 7.0 | 10.0 | 0.00 | 0.06 | 0.06 | 83 | 1016.4 |
| 20260504181930 | 55 | 226 | 6.0 | 12.0 | 0.00 | 0.06 | 0.06 | 83 | 1016.3 |
| 20260504180930 | 55 | 235 | 9.0 | 12.0 | 0.00 | 0.06 | 0.06 | 83 | 1016.2 |
| 20260504180430 | 55 | 235 | 7.0 | 12.0 | 0.00 | 0.06 | 0.06 | 83 | 1016.2 |
| 20260504175932 | 55 | 224 | 8.0 | 12.0 | 0.00 | 0.06 | 0.06 | 83 | 1016.2 |
| 20260504175430 | 55 | 236 | 7.0 | 12.0 | 0.00 | 0.06 | 0.06 | 83 | 1016.2 |
| 20260504174931 | 55 | 238 | 7.0 | 12.0 | 0.00 | 0.06 | 0.06 | 83 | 1016.2 |
| 20260504173931 | 55 | 225 | 8.0 | 12.0 | 0.00 | 0.06 | 0.06 | 82 | 1016.2 |
| 20260504173430 | 55 | 227 | 7.0 | 10.0 | 0.00 | 0.06 | 0.06 | 82 | 1016.3 |
| 20260504172932 | 55 | 230 | 9.0 | 13.0 | 0.00 | 0.06 | 0.06 | 82 | 1016.3 |
| 20260504172430 | 55 | 235 | 7.0 | 12.0 | 0.00 | 0.06 | 0.06 | 81 | 1016.3 |
| 20260504171930 | 56 | 232 | 7.0 | 12.0 | 0.00 | 0.06 | 0.06 | 82 | 1016.3 |
| 20260504171430 | 56 | 225 | 7.0 | 10.0 | 0.00 | 0.06 | 0.06 | 84 | 1016.3 |
| 20260504170929 | 55 | 228 | 7.0 | 12.0 | 0.00 | 0.06 | 0.06 | 85 | 1016.3 |
| 20260504170431 | 55 | 226 | 6.0 | 9.0 | 0.00 | 0.06 | 0.06 | 83 | 1016.3 |
| 20260504150931 | 53 | 246 | 2.0 | 5.0 | 0.04 | 0.06 | 0.06 | 95 | 1016.8 |
| 20260504140930 | 61 | 220 | 6.0 | 9.0 | 0.00 | 0.02 | 0.02 | 75 | 1016.1 |
| 20260504140430 | 59 | 202 | 5.0 | 9.0 | 0.00 | 0.02 | 0.02 | 75 | 1016.1 |
| 20260504130430 | 54 | 228 | 5.0 | 7.0 | 0.01 | 0.02 | 0.02 | 88 | 1016.8 |
| 20260504100430 | 59 | 230 | 5.0 | 9.0 | 0.00 | 0.01 | 0.01 | 82 | 1016.5 |
| 20260504081931 | 53 | 328 | 0.0 | 3.0 | 0.00 | 0.01 | 0.01 | 94 | 1016.4 |
| 20260504081431 | 53 | 328 | 1.0 | 3.0 | 0.00 | 0.01 | 0.01 | 95 | 1016.5 |
| 20260504080930 | 51 | 328 | 0.0 | 2.0 | 0.00 | 0.01 | 0.01 | 95 | 1016.5 |
| 20260504080430 | 50 | 328 | 1.0 | 2.0 | 0.00 | 0.01 | 0.01 | 96 | 1016.5 |